| time (UTC) | temp C | wind direction | speed KPH | gust KPH | rain 1hr cm | rain 24hr cm | rain mn cm | humidity % | barometer mb |
| 20260507182043 | 18 | 38 | 3.2 | 6.4 | 0.00 | 0.00 | 0.00 | 53 | 1016.5 |
| 20260507181531 | 18 | 26 | 1.6 | 6.4 | 0.00 | 0.00 | 0.00 | 54 | 1016.7 |
| 20260507181038 | 19 | 22 | 3.2 | 6.4 | 0.00 | 0.00 | 0.00 | 54 | 1016.6 |
| 20260507180550 | 19 | 19 | 3.2 | 9.7 | 0.00 | 0.00 | 0.00 | 55 | 1016.5 |
| 20260507180027 | 20 | 52 | 4.8 | 9.7 | 0.00 | 0.00 | 0.00 | 51 | 1016.8 |
| 20260507175543 | 20 | 238 | 1.6 | 4.8 | 0.00 | 0.00 | 0.00 | 45 | 1017.0 |
| 20260507175101 | 20 | 238 | 3.2 | 4.8 | 0.00 | 0.00 | 0.00 | 46 | 1017.1 |
| 20260507174532 | 20 | 238 | 1.6 | 3.2 | 0.00 | 0.00 | 0.00 | 51 | 1017.0 |
| 20260507174027 | 20 | 238 | 0.0 | 4.8 | 0.00 | 0.00 | 0.00 | 47 | 1016.8 |
| 20260507173540 | 20 | 238 | 1.6 | 4.8 | 0.00 | 0.00 | 0.00 | 45 | 1016.8 |
| 20260507173042 | 20 | 238 | 1.6 | 4.8 | 0.00 | 0.00 | 0.00 | 45 | 1016.6 |
| 20260507172531 | 20 | 238 | 0.0 | 4.8 | 0.00 | 0.00 | 0.00 | 45 | 1016.6 |
| 20260507172100 | 20 | 238 | 1.6 | 8.0 | 0.00 | 0.00 | 0.00 | 46 | 1016.5 |
| 20260507171528 | 20 | 238 | 6.4 | 8.0 | 0.00 | 0.00 | 0.00 | 46 | 1016.6 |
| 20260507171042 | 20 | 241 | 4.8 | 8.0 | 0.00 | 0.00 | 0.00 | 47 | 1016.6 |
| 20260507170528 | 20 | 235 | 4.8 | 8.0 | 0.00 | 0.00 | 0.00 | 48 | 1016.7 |
| 20260507170045 | 20 | 250 | 4.8 | 8.0 | 0.00 | 0.00 | 0.00 | 46 | 1016.5 |
| 20260507165542 | 20 | 271 | 3.2 | 4.8 | 0.00 | 0.00 | 0.00 | 46 | 1016.4 |
| 20260507165042 | 20 | 355 | 3.2 | 4.8 | 0.00 | 0.00 | 0.00 | 46 | 1016.4 |
| 20260507164557 | 20 | 355 | 1.6 | 3.2 | 0.00 | 0.00 | 0.00 | 45 | 1016.4 |
| 20260507164059 | 20 | 355 | 0.0 | 4.8 | 0.00 | 0.00 | 0.00 | 45 | 1016.2 |
| 20260507163529 | 20 | 355 | 1.6 | 6.4 | 0.00 | 0.00 | 0.00 | 48 | 1016.2 |
| 20260507163055 | 20 | 355 | 3.2 | 6.4 | 0.00 | 0.00 | 0.00 | 50 | 1016.4 |
| 20260507162530 | 20 | 336 | 3.2 | 6.4 | 0.00 | 0.00 | 0.00 | 50 | 1016.3 |
| 20260507162044 | 20 | 296 | 1.6 | 8.0 | 0.00 | 0.00 | 0.00 | 51 | 1016.3 |
| 20260507161602 | 20 | 272 | 6.4 | 8.0 | 0.00 | 0.00 | 0.00 | 50 | 1016.2 |
| 20260507161030 | 20 | 284 | 4.8 | 12.9 | 0.00 | 0.00 | 0.00 | 50 | 1016.3 |
| 20260507160540 | 20 | 273 | 8.0 | 14.5 | 0.00 | 0.00 | 0.00 | 50 | 1016.4 |
| 20260507160034 | 20 | 241 | 9.7 | 16.1 | 0.00 | 0.00 | 0.00 | 49 | 1016.2 |
| 20260507155549 | 21 | 257 | 9.7 | 17.7 | 0.00 | 0.00 | 0.00 | 47 | 1016.3 |
| 20260507155041 | 22 | 257 | 8.0 | 12.9 | 0.00 | 0.00 | 0.00 | 39 | 1016.1 |
| 20260507154556 | 22 | 263 | 3.2 | 8.0 | 0.00 | 0.00 | 0.00 | 31 | 1016.0 |
| 20260507154027 | 22 | 68 | 3.2 | 4.8 | 0.00 | 0.00 | 0.00 | 32 | 1016.1 |
| 20260507153536 | 22 | 13 | 1.6 | 6.4 | 0.00 | 0.00 | 0.00 | 34 | 1016.1 |
| 20260507153028 | 22 | 349 | 3.2 | 6.4 | 0.00 | 0.00 | 0.00 | 35 | 1016.1 |
| 20260507152540 | 22 | 329 | 3.2 | 8.0 | 0.00 | 0.00 | 0.00 | 35 | 1016.1 |
| 20260507152107 | 22 | 349 | 3.2 | 8.0 | 0.00 | 0.00 | 0.00 | 35 | 1016.0 |
| 20260507151540 | 22 | 14 | 4.8 | 11.3 | 0.00 | 0.00 | 0.00 | 35 | 1016.0 |
| 20260507151106 | 22 | 63 | 4.8 | 11.3 | 0.00 | 0.00 | 0.00 | 37 | 1016.1 |
| 20260507150526 | 22 | 5 | 4.8 | 11.3 | 0.00 | 0.00 | 0.00 | 38 | 1016.1 |
| 20260507150039 | 22 | 46 | 4.8 | 11.3 | 0.00 | 0.00 | 0.00 | 39 | 1016.3 |
| 20260507145527 | 22 | 35 | 4.8 | 11.3 | 0.00 | 0.00 | 0.00 | 39 | 1016.5 |
| 20260507145046 | 22 | 28 | 6.4 | 9.7 | 0.00 | 0.00 | 0.00 | 40 | 1016.6 |
| 20260507144536 | 22 | 143 | 1.6 | 8.0 | 0.00 | 0.00 | 0.00 | 41 | 1016.7 |
| 20260507144042 | 22 | 123 | 4.8 | 8.0 | 0.00 | 0.00 | 0.00 | 39 | 1016.8 |
| 20260507143602 | 22 | 119 | 4.8 | 8.0 | 0.00 | 0.00 | 0.00 | 37 | 1016.8 |
| 20260507143027 | 22 | 159 | 3.2 | 9.7 | 0.00 | 0.00 | 0.00 | 37 | 1017.0 |
| 20260507142535 | 21 | 200 | 1.6 | 12.9 | 0.00 | 0.00 | 0.00 | 40 | 1017.1 |
| 20260507142029 | 21 | 194 | 8.0 | 12.9 | 0.00 | 0.00 | 0.00 | 42 | 1017.1 |
| 20260507141540 | 21 | 187 | 9.7 | 14.5 | 0.00 | 0.00 | 0.00 | 42 | 1017.1 |
| 20260507141046 | 21 | 196 | 8.0 | 14.5 | 0.00 | 0.00 | 0.00 | 43 | 1017.1 |
| 20260507140542 | 21 | 223 | 9.7 | 17.7 | 0.00 | 0.00 | 0.00 | 44 | 1017.0 |
| 20260507135533 | 21 | 211 | 9.7 | 17.7 | 0.00 | 0.00 | 0.00 | 45 | 1016.8 |
| 20260507135040 | 21 | 228 | 6.4 | 16.1 | 0.00 | 0.00 | 0.00 | 44 | 1016.7 |
| 20260507134530 | 21 | 192 | 11.3 | 16.1 | 0.00 | 0.00 | 0.00 | 43 | 1016.7 |
| 20260507134045 | 21 | 185 | 12.9 | 14.5 | 0.00 | 0.00 | 0.00 | 45 | 1016.5 |
| 20260507133532 | 21 | 224 | 6.4 | 14.5 | 0.00 | 0.00 | 0.00 | 46 | 1016.6 |
| 20260507133039 | 21 | 197 | 8.0 | 14.5 | 0.00 | 0.00 | 0.00 | 46 | 1016.4 |
| 20260507132528 | 21 | 215 | 8.0 | 16.1 | 0.00 | 0.00 | 0.00 | 47 | 1016.4 |
| 20260507132039 | 21 | 208 | 12.9 | 17.7 | 0.00 | 0.00 | 0.00 | 46 | 1016.5 |
| 20260507131529 | 21 | 263 | 8.0 | 20.9 | 0.00 | 0.00 | 0.00 | 48 | 1016.5 |
| 20260507131045 | 21 | 194 | 6.4 | 20.9 | 0.00 | 0.00 | 0.00 | 47 | 1016.5 |
| 20260507130532 | 21 | 155 | 12.9 | 20.9 | 0.00 | 0.00 | 0.00 | 44 | 1016.6 |
| 20260507130026 | 21 | 219 | 8.0 | 19.3 | 0.00 | 0.00 | 0.00 | 42 | 1016.6 |
| 20260507125539 | 22 | 183 | 9.7 | 19.3 | 0.00 | 0.00 | 0.00 | 39 | 1016.7 |
| 20260507125027 | 22 | 167 | 8.0 | 17.7 | 0.00 | 0.00 | 0.00 | 38 | 1016.9 |
| 20260507124539 | 21 | 156 | 11.3 | 17.7 | 0.00 | 0.00 | 0.00 | 40 | 1017.0 |
| 20260507124036 | 22 | 222 | 9.7 | 16.1 | 0.00 | 0.00 | 0.00 | 41 | 1017.0 |
| 20260507123552 | 22 | 158 | 6.4 | 16.1 | 0.00 | 0.00 | 0.00 | 39 | 1017.0 |
| 20260507123041 | 22 | 257 | 8.0 | 14.5 | 0.00 | 0.00 | 0.00 | 45 | 1016.9 |
| 20260507122555 | 22 | 193 | 9.7 | 16.1 | 0.00 | 0.00 | 0.00 | 44 | 1017.0 |
| 20260507122040 | 22 | 167 | 8.0 | 16.1 | 0.00 | 0.00 | 0.00 | 41 | 1017.1 |
| 20260507121533 | 22 | 167 | 4.8 | 14.5 | 0.00 | 0.00 | 0.00 | 44 | 1017.2 |
| 20260507121027 | 22 | 165 | 4.8 | 14.5 | 0.00 | 0.00 | 0.00 | 41 | 1017.3 |
| 20260507120541 | 22 | 192 | 8.0 | 12.9 | 0.00 | 0.00 | 0.00 | 43 | 1017.4 |
| 20260507120035 | 22 | 180 | 8.0 | 12.9 | 0.00 | 0.00 | 0.00 | 39 | 1017.3 |
| 20260507115538 | 23 | 210 | 4.8 | 9.7 | 0.00 | 0.00 | 0.00 | 37 | 1017.3 |
| 20260507115054 | 23 | 206 | 4.8 | 12.9 | 0.00 | 0.00 | 0.00 | 39 | 1017.3 |
| 20260507114542 | 23 | 215 | 6.4 | 12.9 | 0.00 | 0.00 | 0.00 | 38 | 1017.3 |
| 20260507114107 | 22 | 173 | 4.8 | 11.3 | 0.00 | 0.00 | 0.00 | 38 | 1017.3 |
| 20260507113537 | 23 | 147 | 3.2 | 8.0 | 0.00 | 0.00 | 0.00 | 41 | 1017.1 |
| 20260507113045 | 22 | 126 | 3.2 | 9.7 | 0.00 | 0.00 | 0.00 | 43 | 1017.1 |
| 20260507112531 | 22 | 175 | 4.8 | 12.9 | 0.00 | 0.00 | 0.00 | 42 | 1017.1 |
| 20260507112028 | 22 | 121 | 3.2 | 12.9 | 0.00 | 0.00 | 0.00 | 45 | 1017.1 |
| 20260507111541 | 22 | 136 | 3.2 | 12.9 | 0.00 | 0.00 | 0.00 | 46 | 1017.2 |
| 20260507111030 | 22 | 160 | 4.8 | 12.9 | 0.00 | 0.00 | 0.00 | 45 | 1017.3 |
| 20260507110539 | 21 | 90 | 4.8 | 11.3 | 0.00 | 0.00 | 0.00 | 46 | 1017.5 |
| 20260507110040 | 21 | 190 | 4.8 | 9.7 | 0.00 | 0.00 | 0.00 | 46 | 1017.6 |
| 20260507105629 | 22 | 138 | 1.6 | 11.3 | 0.00 | 0.00 | 0.00 | 47 | 1017.6 |
| 20260507105034 | 22 | 265 | 6.4 | 11.3 | 0.00 | 0.00 | 0.00 | 43 | 1017.5 |
| 20260507104547 | 22 | 168 | 4.8 | 8.0 | 0.00 | 0.00 | 0.00 | 43 | 1017.3 |
| 20260507104052 | 22 | 142 | 4.8 | 8.0 | 0.00 | 0.00 | 0.00 | 45 | 1017.3 |
| 20260507103545 | 22 | 111 | 3.2 | 8.0 | 0.00 | 0.00 | 0.00 | 47 | 1017.2 |
| 20260507103034 | 21 | 169 | 4.8 | 9.7 | 0.00 | 0.00 | 0.00 | 48 | 1017.3 |
| 20260507102547 | 21 | 163 | 3.2 | 8.0 | 0.00 | 0.00 | 0.00 | 50 | 1017.5 |
| 20260507102036 | 21 | 194 | 4.8 | 9.7 | 0.00 | 0.00 | 0.00 | 48 | 1017.4 |
| 20260507101550 | 21 | 225 | 4.8 | 12.9 | 0.00 | 0.00 | 0.00 | 46 | 1017.5 |
| 20260507101054 | 21 | 187 | 11.3 | 12.9 | 0.00 | 0.00 | 0.00 | 48 | 1017.5 |
| 20260507100547 | 21 | 166 | 6.4 | 11.3 | 0.00 | 0.00 | 0.00 | 51 | 1017.3 |
| 20260507100033 | 21 | 126 | 6.4 | 11.3 | 0.00 | 0.00 | 0.00 | 52 | 1017.3 |
| 20260507095539 | 21 | 218 | 3.2 | 9.7 | 0.00 | 0.00 | 0.00 | 49 | 1017.3 |
| 20260507095050 | 21 | 182 | 6.4 | 12.9 | 0.00 | 0.00 | 0.00 | 51 | 1017.3 |
| 20260507094536 | 22 | 188 | 3.2 | 11.3 | 0.00 | 0.00 | 0.00 | 53 | 1017.2 |
| 20260507094100 | 21 | 244 | 3.2 | 11.3 | 0.00 | 0.00 | 0.00 | 54 | 1017.0 |
| 20260507093535 | 21 | 173 | 3.2 | 11.3 | 0.00 | 0.00 | 0.00 | 54 | 1017.1 |
| 20260507093041 | 21 | 184 | 6.4 | 12.9 | 0.00 | 0.00 | 0.00 | 52 | 1017.1 |
| 20260507092531 | 21 | 168 | 6.4 | 12.9 | 0.00 | 0.00 | 0.00 | 52 | 1017.3 |
| 20260507092040 | 21 | 220 | 6.4 | 11.3 | 0.00 | 0.00 | 0.00 | 53 | 1017.6 |
| 20260507091548 | 20 | 177 | 6.4 | 11.3 | 0.00 | 0.00 | 0.00 | 54 | 1017.5 |
| 20260507091033 | 21 | 209 | 6.4 | 11.3 | 0.00 | 0.00 | 0.00 | 56 | 1017.6 |
| 20260507090540 | 21 | 145 | 4.8 | 11.3 | 0.00 | 0.00 | 0.00 | 55 | 1017.2 |
| 20260507090029 | 21 | 206 | 4.8 | 11.3 | 0.00 | 0.00 | 0.00 | 55 | 1017.2 |
| 20260507085526 | 21 | 234 | 4.8 | 8.0 | 0.00 | 0.00 | 0.00 | 56 | 1017.1 |
| 20260507085030 | 21 | 225 | 3.2 | 6.4 | 0.00 | 0.00 | 0.00 | 55 | 1017.1 |
| 20260507084547 | 21 | 142 | 3.2 | 9.7 | 0.00 | 0.00 | 0.00 | 54 | 1017.2 |
| 20260507084029 | 20 | 148 | 4.8 | 9.7 | 0.00 | 0.00 | 0.00 | 54 | 1017.1 |
| 20260507083539 | 21 | 196 | 4.8 | 8.0 | 0.00 | 0.00 | 0.00 | 53 | 1017.1 |
| 20260507083040 | 21 | 117 | 3.2 | 8.0 | 0.00 | 0.00 | 0.00 | 55 | 1017.1 |
| 20260507082556 | 20 | 153 | 1.6 | 8.0 | 0.00 | 0.00 | 0.00 | 58 | 1017.2 |
| 20260507082100 | 20 | 194 | 4.8 | 9.7 | 0.00 | 0.00 | 0.00 | 59 | 1017.2 |
| 20260507081533 | 19 | 197 | 4.8 | 11.3 | 0.00 | 0.00 | 0.00 | 59 | 1017.1 |
| 20260507081027 | 19 | 190 | 8.0 | 12.9 | 0.00 | 0.00 | 0.00 | 58 | 1017.2 |
| 20260507080536 | 20 | 202 | 6.4 | 11.3 | 0.00 | 0.00 | 0.00 | 57 | 1017.2 |
| 20260507080039 | 20 | 219 | 6.4 | 11.3 | 0.00 | 0.00 | 0.00 | 57 | 1017.0 |
| 20260507075557 | 20 | 211 | 8.0 | 11.3 | 0.00 | 0.00 | 0.00 | 56 | 1016.8 |
| 20260507075049 | 20 | 214 | 6.4 | 8.0 | 0.00 | 0.00 | 0.00 | 54 | 1016.7 |
| 20260507074544 | 20 | 220 | 4.8 | 8.0 | 0.00 | 0.00 | 0.00 | 54 | 1016.7 |
| 20260507074044 | 20 | 213 | 6.4 | 8.0 | 0.00 | 0.00 | 0.00 | 53 | 1016.6 |
| 20260507073529 | 20 | 207 | 4.8 | 8.0 | 0.00 | 0.00 | 0.00 | 54 | 1016.5 |
| 20260507073033 | 20 | 206 | 3.2 | 9.7 | 0.00 | 0.00 | 0.00 | 58 | 1016.6 |
| 20260507072539 | 20 | 213 | 6.4 | 9.7 | 0.00 | 0.00 | 0.00 | 60 | 1016.7 |
| 20260507072035 | 20 | 196 | 6.4 | 8.0 | 0.00 | 0.00 | 0.00 | 59 | 1016.7 |
| 20260507071530 | 20 | 200 | 4.8 | 8.0 | 0.00 | 0.00 | 0.00 | 61 | 1016.8 |
| 20260507071037 | 20 | 178 | 3.2 | 8.0 | 0.00 | 0.00 | 0.00 | 62 | 1016.8 |
| 20260507070548 | 20 | 160 | 3.2 | 6.4 | 0.00 | 0.00 | 0.00 | 63 | 1016.8 |
| 20260507070034 | 19 | 160 | 3.2 | 6.4 | 0.00 | 0.00 | 0.00 | 62 | 1016.8 |
| 20260507065539 | 19 | 160 | 3.2 | 8.0 | 0.00 | 0.00 | 0.00 | 63 | 1016.8 |
| 20260507065026 | 19 | 146 | 4.8 | 8.0 | 0.00 | 0.00 | 0.00 | 63 | 1016.8 |
| 20260507064544 | 19 | 65 | 6.4 | 8.0 | 0.00 | 0.00 | 0.00 | 63 | 1016.7 |
| 20260507064035 | 18 | 306 | 1.6 | 6.4 | 0.00 | 0.00 | 0.00 | 62 | 1016.8 |
| 20260507063550 | 18 | 313 | 3.2 | 6.4 | 0.00 | 0.00 | 0.00 | 63 | 1016.9 |
| 20260507063031 | 18 | 244 | 4.8 | 9.7 | 0.00 | 0.00 | 0.00 | 63 | 1016.9 |
| 20260507062535 | 19 | 257 | 4.8 | 9.7 | 0.00 | 0.00 | 0.00 | 61 | 1016.9 |
| 20260507062030 | 19 | 283 | 6.4 | 11.3 | 0.00 | 0.00 | 0.00 | 58 | 1016.8 |
| 20260507061538 | 19 | 267 | 8.0 | 11.3 | 0.00 | 0.00 | 0.00 | 53 | 1016.7 |
| 20260507061051 | 20 | 280 | 3.2 | 8.0 | 0.00 | 0.00 | 0.00 | 50 | 1016.5 |
| 20260507060546 | 19 | 331 | 3.2 | 4.8 | 0.00 | 0.00 | 0.00 | 45 | 1016.5 |
| 20260507060049 | 19 | 331 | 1.6 | 4.8 | 0.00 | 0.00 | 0.00 | 46 | 1016.3 |
| 20260507055535 | 19 | 331 | 3.2 | 6.4 | 0.00 | 0.00 | 0.00 | 46 | 1016.3 |
| 20260507055024 | 18 | 331 | 4.8 | 6.4 | 0.00 | 0.00 | 0.00 | 47 | 1016.3 |
| 20260507054534 | 18 | 44 | 0.0 | 3.2 | 0.00 | 0.00 | 0.00 | 51 | 1016.4 |
| 20260507054039 | 18 | 44 | 3.2 | 4.8 | 0.00 | 0.00 | 0.00 | 52 | 1016.4 |
| 20260507053543 | 18 | 44 | 3.2 | 4.8 | 0.00 | 0.00 | 0.00 | 53 | 1016.5 |
| 20260507053039 | 17 | 44 | 1.6 | 4.8 | 0.00 | 0.00 | 0.00 | 54 | 1016.5 |
| 20260507052532 | 17 | 44 | 1.6 | 6.4 | 0.00 | 0.00 | 0.00 | 54 | 1016.5 |
| 20260507052034 | 17 | 44 | 1.6 | 6.4 | 0.00 | 0.00 | 0.00 | 55 | 1016.6 |
| 20260507051545 | 17 | 44 | 3.2 | 3.2 | 0.00 | 0.00 | 0.00 | 55 | 1016.6 |
| 20260507051041 | 17 | 44 | 1.6 | 4.8 | 0.00 | 0.00 | 0.00 | 56 | 1016.7 |
| 20260507050530 | 17 | 44 | 3.2 | 4.8 | 0.00 | 0.00 | 0.00 | 57 | 1016.6 |
| 20260507050030 | 17 | 44 | 1.6 | 4.8 | 0.00 | 0.00 | 0.00 | 59 | 1016.6 |
| 20260507045604 | 16 | 44 | 3.2 | 4.8 | 0.00 | 0.00 | 0.00 | 60 | 1016.6 |
| 20260507045031 | 16 | 325 | 0.0 | 3.2 | 0.00 | 0.00 | 0.00 | 62 | 1016.6 |
| 20260507044538 | 16 | 325 | 1.6 | 3.2 | 0.00 | 0.00 | 0.00 | 62 | 1016.5 |
| 20260507044030 | 16 | 325 | 0.0 | 3.2 | 0.00 | 0.00 | 0.00 | 62 | 1016.3 |
| 20260507043538 | 16 | 325 | 1.6 | 3.2 | 0.00 | 0.00 | 0.00 | 63 | 1016.2 |
| 20260507043040 | 16 | 325 | 0.0 | 3.2 | 0.00 | 0.00 | 0.00 | 63 | 1016.0 |
| 20260507042530 | 15 | 325 | 1.6 | 3.2 | 0.00 | 0.00 | 0.00 | 63 | 1015.8 |
| 20260507042111 | 15 | 325 | 0.0 | 1.6 | 0.00 | 0.00 | 0.00 | 63 | 1015.6 |
| 20260507041547 | 15 | 325 | 0.0 | 3.2 | 0.00 | 0.00 | 0.00 | 64 | 1015.6 |
| 20260507041055 | 15 | 325 | 1.6 | 3.2 | 0.00 | 0.00 | 0.00 | 64 | 1015.5 |
| 20260507040546 | 15 | 323 | 1.6 | 4.8 | 0.00 | 0.00 | 0.00 | 65 | 1015.4 |
| 20260507040039 | 15 | 323 | 1.6 | 6.4 | 0.00 | 0.00 | 0.00 | 65 | 1015.4 |
| 20260507035530 | 15 | 323 | 3.2 | 8.0 | 0.00 | 0.00 | 0.00 | 66 | 1015.3 |
| 20260507035035 | 15 | 331 | 4.8 | 8.0 | 0.00 | 0.00 | 0.00 | 66 | 1015.2 |
| 20260507034539 | 14 | 301 | 3.2 | 8.0 | 0.00 | 0.00 | 0.00 | 66 | 1015.1 |
| 20260507034102 | 15 | 296 | 4.8 | 6.4 | 0.00 | 0.00 | 0.00 | 64 | 1015.1 |
| 20260507033556 | 15 | 268 | 3.2 | 9.7 | 0.00 | 0.00 | 0.00 | 61 | 1015.0 |
| 20260507033042 | 16 | 302 | 6.4 | 9.7 | 0.00 | 0.00 | 0.00 | 55 | 1014.8 |
| 20260507032538 | 16 | 351 | 6.4 | 12.9 | 0.00 | 0.00 | 0.00 | 54 | 1014.8 |
| 20260507032037 | 16 | 22 | 6.4 | 12.9 | 0.00 | 0.00 | 0.00 | 55 | 1014.7 |
| 20260507031546 | 16 | 65 | 8.0 | 14.5 | 0.00 | 0.00 | 0.00 | 56 | 1014.6 |
| 20260507031038 | 16 | 49 | 8.0 | 16.1 | 0.00 | 0.00 | 0.00 | 58 | 1014.6 |
| 20260507030529 | 16 | 9 | 9.7 | 16.1 | 0.00 | 0.00 | 0.00 | 59 | 1014.6 |
| 20260507030039 | 15 | 5 | 9.7 | 16.1 | 0.00 | 0.00 | 0.00 | 63 | 1014.7 |
| 20260507025531 | 15 | 90 | 9.7 | 16.1 | 0.00 | 0.00 | 0.00 | 67 | 1014.8 |
| 20260507025100 | 15 | 66 | 4.8 | 8.0 | 0.00 | 0.00 | 0.00 | 71 | 1014.7 |
| 20260507024553 | 15 | 72 | 4.8 | 6.4 | 0.00 | 0.00 | 0.00 | 74 | 1014.8 |
| 20260507024043 | 15 | 71 | 4.8 | 14.5 | 0.00 | 0.00 | 0.00 | 75 | 1015.0 |
| 20260507023531 | 15 | 92 | 8.0 | 14.5 | 0.00 | 0.00 | 0.00 | 75 | 1015.1 |
| 20260507023044 | 15 | 56 | 6.4 | 14.5 | 0.00 | 0.00 | 0.00 | 75 | 1015.1 |
| 20260507022537 | 15 | 101 | 6.4 | 12.9 | 0.00 | 0.00 | 0.00 | 75 | 1015.2 |
| 20260507022027 | 15 | 102 | 4.8 | 6.4 | 0.00 | 0.00 | 0.00 | 75 | 1015.4 |
| 20260507021539 | 15 | 93 | 0.0 | 3.2 | 0.00 | 0.00 | 0.00 | 75 | 1015.4 |
| 20260507021046 | 15 | 93 | 1.6 | 3.2 | 0.00 | 0.00 | 0.00 | 75 | 1015.2 |
| 20260507020553 | 15 | 93 | 0.0 | 3.2 | 0.00 | 0.00 | 0.00 | 75 | 1015.0 |
| 20260507020106 | 15 | 93 | 1.6 | 11.3 | 0.00 | 0.00 | 0.00 | 74 | 1015.0 |
| 20260507015533 | 15 | 74 | 4.8 | 11.3 | 0.00 | 0.00 | 0.00 | 74 | 1014.9 |
| 20260507015038 | 15 | 80 | 4.8 | 16.1 | 0.00 | 0.00 | 0.00 | 73 | 1014.9 |
| 20260507014557 | 15 | 67 | 8.0 | 16.1 | 0.00 | 0.00 | 0.00 | 72 | 1014.9 |
| 20260507014040 | 15 | 75 | 8.0 | 16.1 | 0.00 | 0.00 | 0.00 | 71 | 1014.9 |
| 20260507013553 | 15 | 63 | 8.0 | 14.5 | 0.00 | 0.00 | 0.00 | 70 | 1015.0 |
| 20260507013058 | 16 | 86 | 6.4 | 11.3 | 0.00 | 0.00 | 0.00 | 69 | 1015.0 |
| 20260507012552 | 16 | 60 | 3.2 | 9.7 | 0.00 | 0.00 | 0.00 | 68 | 1015.0 |
| 20260507012053 | 16 | 55 | 4.8 | 9.7 | 0.00 | 0.00 | 0.00 | 66 | 1014.9 |
| 20260507011547 | 16 | 128 | 4.8 | 6.4 | 0.00 | 0.00 | 0.00 | 65 | 1014.8 |
| 20260507011111 | 16 | 71 | 3.2 | 9.7 | 0.00 | 0.00 | 0.00 | 64 | 1014.7 |
| 20260507010536 | 16 | 57 | 6.4 | 16.1 | 0.00 | 0.00 | 0.00 | 63 | 1014.7 |
| 20260507010106 | 16 | 87 | 8.0 | 16.1 | 0.00 | 0.00 | 0.00 | 61 | 1014.8 |
| 20260507005539 | 17 | 71 | 6.4 | 14.5 | 0.00 | 0.00 | 0.00 | 58 | 1014.7 |
| 20260507005044 | 17 | 22 | 4.8 | 8.0 | 0.00 | 0.00 | 0.00 | 58 | 1015.0 |
| 20260507004534 | 17 | 307 | 3.2 | 11.3 | 0.00 | 0.00 | 0.00 | 56 | 1015.1 |
| 20260507004036 | 17 | 289 | 6.4 | 19.3 | 0.00 | 0.00 | 0.00 | 56 | 1015.2 |
| 20260507003540 | 17 | 316 | 8.0 | 19.3 | 0.00 | 0.00 | 0.00 | 57 | 1015.1 |
| 20260507003030 | 17 | 329 | 8.0 | 16.1 | 0.00 | 0.00 | 0.00 | 57 | 1015.0 |
| 20260507002549 | 17 | 348 | 6.4 | 16.1 | 0.00 | 0.00 | 0.00 | 57 | 1014.9 |
| 20260507002030 | 17 | 339 | 8.0 | 16.1 | 0.00 | 0.00 | 0.00 | 58 | 1015.0 |
| 20260507001602 | 17 | 287 | 8.0 | 20.9 | 0.00 | 0.00 | 0.00 | 58 | 1015.1 |
| 20260507001110 | 16 | 12 | 11.3 | 24.1 | 0.00 | 0.00 | 0.00 | 59 | 1015.2 |
| 20260507000538 | 16 | 355 | 11.3 | 24.1 | 0.00 | 0.00 | 0.00 | 60 | 1015.3 |
| 20260507000030 | 16 | 59 | 8.0 | 17.7 | 0.00 | 0.00 | 0.00 | 60 | 1015.4 |
| 20260506235548 | 16 | 37 | 9.7 | 17.7 | 0.00 | 0.00 | 0.00 | 61 | 1015.4 |
| 20260506235039 | 16 | 360 | 9.7 | 16.1 | 0.00 | 0.00 | 0.00 | 62 | 1015.4 |
| 20260506234553 | 16 | 15 | 8.0 | 14.5 | 0.00 | 0.00 | 0.00 | 62 | 1015.6 |
| 20260506234037 | 16 | 21 | 4.8 | 6.4 | 0.00 | 0.00 | 0.00 | 63 | 1016.0 |
| 20260506233527 | 16 | 70 | 0.0 | 6.4 | 0.00 | 0.00 | 0.00 | 63 | 1016.1 |
| 20260506233035 | 16 | 73 | 3.2 | 6.4 | 0.00 | 0.00 | 0.00 | 64 | 1016.2 |
| 20260506232551 | 16 | 24 | 3.2 | 4.8 | 0.00 | 0.00 | 0.00 | 65 | 1016.3 |
| 20260506232040 | 16 | 113 | 3.2 | 4.8 | 0.00 | 0.00 | 0.00 | 66 | 1016.4 |
| 20260506231553 | 16 | 137 | 1.6 | 4.8 | 0.00 | 0.00 | 0.00 | 65 | 1016.4 |
| 20260506231036 | 16 | 137 | 3.2 | 4.8 | 0.00 | 0.00 | 0.00 | 64 | 1016.4 |
| 20260506230531 | 16 | 137 | 1.6 | 4.8 | 0.00 | 0.00 | 0.00 | 63 | 1016.3 |
| 20260506230035 | 17 | 48 | 3.2 | 4.8 | 0.00 | 0.00 | 0.00 | 62 | 1016.3 |
| 20260506225548 | 17 | 46 | 3.2 | 8.0 | 0.00 | 0.00 | 0.00 | 62 | 1016.3 |
| 20260506225057 | 17 | 55 | 3.2 | 9.7 | 0.00 | 0.00 | 0.00 | 62 | 1016.2 |
| 20260506224611 | 17 | 33 | 4.8 | 9.7 | 0.00 | 0.00 | 0.00 | 63 | 1016.2 |
| 20260506224029 | 16 | 30 | 3.2 | 9.7 | 0.00 | 0.00 | 0.00 | 64 | 1016.3 |
| 20260506223539 | 16 | 69 | 3.2 | 8.0 | 0.00 | 0.00 | 0.00 | 66 | 1016.2 |
| 20260506223046 | 17 | 61 | 3.2 | 11.3 | 0.00 | 0.00 | 0.00 | 66 | 1016.3 |
| 20260506222538 | 17 | 62 | 4.8 | 8.0 | 0.00 | 0.00 | 0.00 | 67 | 1016.4 |
| 20260506222043 | 17 | 68 | 3.2 | 8.0 | 0.00 | 0.00 | 0.00 | 67 | 1016.4 |
| 20260506221536 | 17 | 67 | 4.8 | 8.0 | 0.00 | 0.00 | 0.00 | 68 | 1016.4 |
| 20260506221101 | 17 | 79 | 4.8 | 8.0 | 0.00 | 0.00 | 0.00 | 67 | 1016.4 |
| 20260506220530 | 17 | 75 | 6.4 | 8.0 | 0.00 | 0.00 | 0.00 | 67 | 1016.3 |
| 20260506220032 | 17 | 65 | 4.8 | 8.0 | 0.00 | 0.00 | 0.00 | 67 | 1016.3 |
| 20260506215546 | 17 | 67 | 3.2 | 11.3 | 0.00 | 0.00 | 0.00 | 67 | 1016.2 |
| 20260506215034 | 17 | 62 | 4.8 | 8.0 | 0.00 | 0.00 | 0.00 | 66 | 1016.0 |
| 20260506214539 | 17 | 88 | 4.8 | 11.3 | 0.00 | 0.00 | 0.00 | 65 | 1016.0 |
| 20260506214034 | 17 | 94 | 6.4 | 11.3 | 0.00 | 0.00 | 0.00 | 65 | 1015.8 |
| 20260506213549 | 17 | 77 | 6.4 | 8.0 | 0.00 | 0.00 | 0.00 | 65 | 1015.7 |
| 20260506213036 | 17 | 82 | 3.2 | 6.4 | 0.00 | 0.00 | 0.00 | 65 | 1015.6 |
| 20260506212537 | 17 | 82 | 3.2 | 11.3 | 0.00 | 0.00 | 0.00 | 64 | 1015.5 |
| 20260506212041 | 17 | 84 | 4.8 | 12.9 | 0.00 | 0.00 | 0.00 | 64 | 1015.5 |
| 20260506211534 | 17 | 80 | 6.4 | 12.9 | 0.00 | 0.00 | 0.00 | 64 | 1015.4 |
| 20260506211058 | 17 | 90 | 6.4 | 12.9 | 0.00 | 0.00 | 0.00 | 63 | 1015.4 |
| 20260506210549 | 17 | 101 | 8.0 | 11.3 | 0.00 | 0.00 | 0.00 | 62 | 1015.4 |
| 20260506210112 | 17 | 106 | 3.2 | 4.8 | 0.00 | 0.00 | 0.00 | 58 | 1015.6 |
| 20260506205554 | 17 | 257 | 1.6 | 8.0 | 0.00 | 0.00 | 0.00 | 58 | 1015.5 |
| 20260506205101 | 18 | 257 | 1.6 | 11.3 | 0.00 | 0.00 | 0.00 | 57 | 1015.5 |
| 20260506204552 | 18 | 255 | 4.8 | 11.3 | 0.00 | 0.00 | 0.00 | 56 | 1015.4 |
| 20260506204041 | 18 | 344 | 6.4 | 11.3 | 0.00 | 0.00 | 0.00 | 57 | 1015.3 |
| 20260506203558 | 18 | 349 | 4.8 | 8.0 | 0.00 | 0.00 | 0.00 | 57 | 1015.3 |
| 20260506203037 | 18 | 44 | 3.2 | 6.4 | 0.00 | 0.00 | 0.00 | 57 | 1015.3 |
| 20260506202554 | 18 | 67 | 3.2 | 6.4 | 0.00 | 0.00 | 0.00 | 57 | 1015.3 |
| 20260506202037 | 18 | 69 | 3.2 | 11.3 | 0.00 | 0.00 | 0.00 | 57 | 1015.3 |
| 20260506201549 | 18 | 67 | 6.4 | 11.3 | 0.00 | 0.00 | 0.00 | 57 | 1015.4 |
| 20260506201057 | 18 | 53 | 4.8 | 9.7 | 0.00 | 0.00 | 0.00 | 58 | 1015.6 |
| 20260506200549 | 18 | 36 | 4.8 | 9.7 | 0.00 | 0.00 | 0.00 | 58 | 1015.8 |
| 20260506200047 | 18 | 19 | 4.8 | 9.7 | 0.00 | 0.00 | 0.00 | 58 | 1015.8 |
| 20260506195542 | 18 | 21 | 3.2 | 6.4 | 0.00 | 0.00 | 0.00 | 58 | 1015.9 |
| 20260506195051 | 18 | 48 | 1.6 | 8.0 | 0.00 | 0.00 | 0.00 | 58 | 1015.9 |
| 20260506194534 | 18 | 50 | 4.8 | 11.3 | 0.00 | 0.00 | 0.00 | 58 | 1015.8 |
| 20260506194035 | 18 | 67 | 6.4 | 11.3 | 0.00 | 0.00 | 0.00 | 58 | 1015.9 |
| 20260506193529 | 19 | 63 | 3.2 | 8.0 | 0.00 | 0.00 | 0.00 | 58 | 1015.9 |
| 20260506193041 | 19 | 75 | 1.6 | 4.8 | 0.00 | 0.00 | 0.00 | 58 | 1015.9 |
| 20260506192530 | 19 | 75 | 1.6 | 4.8 | 0.00 | 0.00 | 0.00 | 58 | 1015.9 |
| 20260506192035 | 19 | 75 | 1.6 | 4.8 | 0.00 | 0.00 | 0.00 | 58 | 1016.0 |
| 20260506191546 | 19 | 75 | 3.2 | 4.8 | 0.00 | 0.00 | 0.00 | 58 | 1015.9 |
| 20260506191028 | 19 | 75 | 1.6 | 4.8 | 0.00 | 0.00 | 0.00 | 58 | 1015.9 |
| 20260506190549 | 19 | 75 | 3.2 | 4.8 | 0.00 | 0.00 | 0.00 | 58 | 1015.9 |
| 20260506190053 | 19 | 75 | 1.6 | 6.4 | 0.00 | 0.00 | 0.00 | 58 | 1015.8 |
| 20260506185541 | 19 | 75 | 3.2 | 6.4 | 0.00 | 0.00 | 0.00 | 58 | 1015.7 |
| 20260506185049 | 19 | 71 | 3.2 | 4.8 | 0.00 | 0.00 | 0.00 | 58 | 1015.6 |
| 20260506184653 | 19 | 71 | 1.6 | 4.8 | 0.00 | 0.00 | 0.00 | 58 | 1015.6 |
| 20260506184027 | 19 | 71 | 3.2 | 4.8 | 0.00 | 0.00 | 0.00 | 59 | 1015.5 |
| 20260506183540 | 19 | 71 | 1.6 | 4.8 | 0.00 | 0.00 | 0.00 | 59 | 1015.5 |
| 20260506183027 | 19 | 73 | 3.2 | 8.0 | 0.00 | 0.00 | 0.00 | 60 | 1015.5 |
| 20260506182536 | 19 | 59 | 3.2 | 8.0 | 0.00 | 0.00 | 0.00 | 60 | 1015.5 |